Regional Weather Roundup
Issued by NWS Huntsville, AL

Home | Current Version | Previous Version | Text Only | Print | Product List | Glossary On
Versions: 1 2 3 4 5 6 7 8 9 10 11 12 13 14 15 16 17 18 19 20 21 22 23 24 25 26 27 28 29 30 31 32 33 34 35 36 37 38 39 40 41 42 43 44 45 46 47 48 49 50
000
ASUS44 KHUN 210710
RWRHUN

WEATHER ROUNDUP FOR THE TENNESSEE VALLEY
NATIONAL WEATHER SERVICE HUNTSVILLE AL
200 AM CDT TUE OCT 21 2014

ALZ001>004-210800-
NORTHWEST ALABAMA

CITY           SKY/WX    TMP DP  RH WIND       PRES   REMARKS
COURTLAND HCN    N/A     49  32  52 CALM        N/A
SHOALS AIRPORT CLEAR     49  47  93 CALM      30.04S
SHOALS TVA RES   N/A     48 N/A N/A MISG        N/A
$$

ALZ005>007-016-210800-
NORTH CENTRAL ALABAMA

CITY           SKY/WX    TMP DP  RH WIND       PRES   REMARKS
CULLMAN AG STN   N/A     46 N/A N/A CALM        N/A
DECATUR AP     CLEAR     47  45  93 CALM      30.03F
HUNTSVILLE AP  CLEAR     52  48  86 E3        30.03S
MERIDIANVILLE  CLEAR     45  41  87 CALM      30.03S
VINEMONT AP    FAIR      47  47  98 CALM      30.05S
$$

ALZ008>010-210800-
NORTHEAST ALABAMA

CITY           SKY/WX    TMP DP  RH WIND       PRES   REMARKS
ALBERTVILLE    CLEAR     50  50 100 CALM      30.02S
FORT PAYNE     CLEAR     45  43  93 CALM      30.02F
SCOTTSBORO AP  PTCLDY    48  46  93 CALM      30.04S
SCOTTSBORO HCN   N/A     46 N/A N/A MISG        N/A
VALLEY HEAD      N/A     45 N/A N/A MISG        N/A
$$

TNZ076-096-097-210800-
SOUTHEASTERN MIDDLE TENNESSEE

CITY           SKY/WX    TMP DP  RH WIND       PRES   REMARKS
TULLAHOMA      CLEAR     45  45 100 CALM      30.03S
WINCHESTER     CLEAR     46  45  93 CALM      30.03F
$$

...SURROUNDING SITES...

CITY           SKY/WX    TMP DP  RH WIND       PRES   REMARKS
ATLANTA        CLEAR     57  50  77 NW6       30.00F
ANNISTON       CLEAR     49  47  93 CALM      30.03S
BIRMINGHAM     CLEAR     52  50  93 CALM      30.05S
CHATTANOOGA    CLEAR     52  49  89 CALM      30.02S
CORINTH        FAIR      48  46  93 CALM      30.03S FOG
DALTON         FOG       46  46 100 CALM      30.02S VSB 3/4
GADSDEN        CLEAR     48  45  87 CALM      30.03S
GOLDEN TRNGL   CLEAR     48  45  87 CALM      30.03S
HALEYVILLE     FAIR      46  46 100 CALM      30.05F
JACKSON TN     PTCLDY    55  51  86 SW3       30.02S
MEMPHIS        PTCLDY    56  52  86 CALM      30.03S
NASHVILLE      CLEAR     53  49  86 CALM      30.01S
OXFORD MS      FAIR      48  46  93 CALM      30.05S
ROME           CLEAR     49  47  93 NE3       30.02S
SAVANNAH       CLEAR     46  46 100 CALM      30.03S
TUPELO         CLEAR     52  49  89 CALM      30.03S
TUSCALOOSA     CLEAR     51  49  92 CALM      30.04R
$$

...GULF COAST WEATHER...

CITY           SKY/WX    TMP DP  RH WIND       PRES   REMARKS
GULFPORT       CLEAR     55  52  89 CALM      30.01S
PASCAGOULA     CLEAR     49  48  97 CALM      30.01S
MOBILE         CLEAR     53  52  96 N3        30.02S
GULF SHORES    SUNNY     52  51  97 CALM      30.00S
PENSACOLA      CLEAR     54  53  97 CALM      30.00S
DESTIN         CLEAR     65  55  70 N8        29.99S
PANAMA CITY    CLEAR     64  57  80 NE3       29.99S
APPALACHICOLA  CLEAR     66  61  84 CALM      29.96F
$$



USA.gov is the U.S. government's official web portal to all federal, state and local government web resources and services.